This is the latest recevied weather packets stored in our database for station/object VE6EN. If no packets are shown the sender has not sent any weather packets the latest 10 day(s).
| Time | Temp. | Humidity | Pressure | Rain* | Wind** | Luminosity | Snow |
|---|---|---|---|---|---|---|---|
| 1777882197 | 6.67° C | 66% | 1014.4 hPa | 0 mm | - | - | - |
| 1777881598 | 6.67° C | 67% | 1014.3 hPa | 0 mm | - | - | - |
| 1777880999 | 6.67° C | 68% | 1014.4 hPa | 0 mm | - | - | - |
| 1777880398 | 7.22° C | 68% | 1014.5 hPa | 0.25 mm | - | - | - |
| 1777879797 | 7.22° C | 70% | 1014.5 hPa | 0.25 mm | - | - | - |
| 1777879199 | 7.22° C | 69% | 1014.7 hPa | 0.25 mm | - | - | - |
| 1777878599 | 7.22° C | 70% | 1014.7 hPa | 0.25 mm | - | - | - |
| 1777878004 | 7.22° C | 70% | 1014.8 hPa | 0.25 mm | - | - | - |
| 1777877406 | 7.78° C | 70% | 1014.8 hPa | 0.25 mm | - | - | - |
| 1777876803 | 7.78° C | 69% | 1014.7 hPa | 0 mm | - | - | - |
| 1777876204 | 7.78° C | 67% | 1014.6 hPa | 0 mm | - | - | - |
| 1777875604 | 8.33° C | 64% | 1014.6 hPa | 0 mm | - | - | - |
| 1777875003 | 8.33° C | 60% | 1014.6 hPa | 0 mm | - | - | - |
| 1777874405 | 8.89° C | 60% | 1014.4 hPa | 0 mm | - | - | - |
| 1777873804 | 8.89° C | 57% | 1014.3 hPa | 0 mm | - | - | - |
| 1777873204 | 8.89° C | 56% | 1014.2 hPa | 0 mm | - | - | - |
| 1777872605 | 9.44° C | 55% | 1014 hPa | 0 mm | - | - | - |
| 1777872004 | 9.44° C | 54% | 1013.9 hPa | 0 mm | - | - | - |
| 1777871402 | 9.44° C | 52% | 1013.7 hPa | 0 mm | - | - | - |
| 1777870801 | 10° C | 50% | 1013.6 hPa | 0 mm | - | - | - |
| 1777870204 | 10° C | 49% | 1013.5 hPa | 0 mm | - | - | - |
| 1777869605 | 10° C | 48% | 1013.4 hPa | 0 mm | - | - | - |
| 1777869000 | 10.56° C | 46% | 1013.3 hPa | 0 mm | - | - | - |
| 1777868401 | 10.56° C | 45% | 1013.1 hPa | 0 mm | - | - | - |
| 1777867804 | 10.56° C | 43% | 1013 hPa | 0 mm | - | - | - |
* Rain latest hour (hover to see other rain measurements)
** Current wind speed in m/s (hover to see current wind gust speed)